Regional Weather Roundup
Issued by NWS

Home | Current Version | Previous Version | Text Only | Print | Product List | Glossary Off
Versions: 1 2 3 4 5 6 7 8 9 10 11 12 13 14 15 16 17 18 19 20 21 22 23 24 25 26 27 28 29 30 31 32 33 34 35 36 37 38 39 40 41 42 43 44 45 46 47 48 49 50

000
ASUS43 KOAX 240102
RWRNE

WEATHER ROUNDUP FOR NEBRASKA
NATIONAL WEATHER SERVICE OMAHA NE
800 PM CDT SAT SEP 23 2017

NOTES: SATELLITE DATA IS BEING USED TO AUGMENT CLOUD COVER ABOVE
       12000 FEET.
       "FAIR" INDICATES FEW OR NO CLOUDS BELOW 12,000 FEET WITH NO
       SIGNIFICANT WEATHER AND/OR OBSTRUCTIONS TO VISIBILITY.


NEZ001>004-019>022-054>056-240200-
NEBRASKA PANHANDLE

CITY           SKY/WX    TMP DP  RH WIND       PRES   REMARKS
SCOTTSBLUFF    LGT RAIN  46  43  89 NE8       30.00F
ALLIANCE       LGT RAIN  45  44  97 N9        29.99F
CHADRON        LGT RAIN  46  44  93 N8        30.02S FOG
GORDON         DRIZZLE   46  45  94 NE8       30.00F
KIMBALL        HVY RAIN  44  44 100 N14       30.00S
SIDNEY         LGT RAIN  46  45  96 N16       29.97F
$$

NEZ057>060-069>072-079>082-240200-
SOUTHWEST NEBRASKA

CITY           SKY/WX    TMP DP  RH WIND       PRES   REMARKS
NORTH PLATTE   CLOUDY    55  53  93 E6        29.86F
IMPERIAL       RAIN      54  52  93 N8        29.92R
LEXINGTON      LGT RAIN  57  55  92 E3        29.91R
MCCOOK         CLOUDY    59  58  96 N5        29.87R
OGALLALA       LGT RAIN  55  53  91 N8        29.92F
$$

NEZ005>010-023>029-035>040-094-240200-
NORTH CENTRAL NEBRASKA

CITY           SKY/WX    TMP DP  RH WIND       PRES   REMARKS
VALENTINE      CLOUDY    52  50  93 NW12      29.95F
AINSWORTH      CLOUDY    51  51 100 N5        29.92F
BROKEN BOW     TSTM      54  54 100 W12       29.92R
O`NEILL        TSTM      54  54 100 N12       29.92F
ORD            CLOUDY    56  53  90 N10       29.91R
THEDFORD       LGT RAIN  51  50  96 NW10      29.92F
$$

NEZ041-046>049-061>064-073>077-083>087-240200-
SOUTH CENTRAL NEBRASKA

CITY           SKY/WX    TMP DP  RH WIND       PRES   REMARKS
GRAND ISLAND   MOCLDY    64  58  80 N14       29.88S
AURORA         PTCLDY    78  61  55 SE10      29.86S
HASTINGS       CLOUDY    82  59  45 S13       29.86S
HEBRON         CLOUDY    82  60  46 SE10      29.88R
HOLDREGE       CLOUDY    59  56  92 N9        29.88F
KEARNEY        CLOUDY    60  59  96 N10       29.91R
YORK           CLOUDY    82  59  44 S13       29.87R
$$

NEZ011>018-030>034-042>045-240200-
NORTHEAST NEBRASKA

CITY           SKY/WX    TMP DP  RH WIND       PRES   REMARKS
NORFOLK        CLOUDY    79  65  62 S9        29.86R
ALBION         CLOUDY    59  56  89 NW20G25   29.91R
BLAIR          CLEAR     83  63  50 SE14      29.90S
COLUMBUS       CLEAR     81  64  56 SE9       29.86R
FREMONT        PTCLDY    83  60  46 SE10      29.88S
TEKAMAH        PTCLDY    80  62  54 SE10      29.87S
WAYNE          MOCLDY    77  69  76 SE8       29.86S
$$

NEZ050>053-065>068-078-088>093-240200-
SOUTHEAST NEBRASKA

CITY           SKY/WX    TMP DP  RH WIND       PRES   REMARKS
LINCOLN        CLEAR     83  61  47 S15       29.88R
OMAHA EPPLEY   MOCLDY    85  62  46 SE13      29.89S
BEATRICE       CLEAR     83  64  51 SE9       29.89S
FALLS CITY     CLEAR     78  66  66 SE7       29.92S
NEBRASKA CITY  CLEAR     80  64  57 S10       29.92S
PLATTSMOUTH    CLEAR     82  64  52 S9        29.91S
$$

NEZ044-045-051>053-067-240200-
OMAHA AREA

CITY           SKY/WX    TMP DP  RH WIND       PRES   REMARKS
OMAHA EPPLEY   MOCLDY    85  62  46 SE13      29.89S
BLAIR          CLEAR     83  63  50 SE14      29.90S
FREMONT        PTCLDY    83  60  46 SE10      29.88S
MILLARD        CLEAR     83  65  54 SE8       29.90R
OFFUTT AFB     CLEAR     80  64  57 SE9       29.90S
PLATTSMOUTH    CLEAR     82  64  52 S9        29.91S
WAHOO          FAIR      81  61  50 SE10      29.88S
$$




USA.gov is the U.S. government's official web portal to all federal, state and local government web resources and services.